Regional Weather Roundup
Issued by NWS

Home | Current Version | Previous Version | Graphics & Text | Print | Product List | Glossary On
Versions: 1 2 3 4 5 6 7 8 9 10 11 12 13 14 15 16 17 18 19 20 21 22 23 24 25 26 27 28 29 30 31 32 33 34 35 36 37 38 39 40 41 42 43 44 45 46 47 48 49 50
000
ASUS43 KBIS 202102
RWRND

NORTH DAKOTA REGIONAL WEATHER ROUNDUP
NATIONAL WEATHER SERVICE BISMARCK ND
300 PM CST TUE FEB 20 2018

NOTE: "FAIR" INDICATES FEW OR NO CLOUDS BELOW 12,000 FEET WITH NO
SIGNIFICANT WEATHER AND/OR OBSTRUCTIONS TO VISIBILITY.


NDZ001>003-009>011-017-202200-
NORTHWEST NORTH DAKOTA

CITY           SKY/WX    TMP DP  RH WIND       PRES   REMARKS
WILLISTON      FAIR       5  -3  69 W15       30.11R WCI -13
MINOT          FAIR      10   0  63 W15       30.07R WCI  -7
MINOT AFB      FAIR       9   0  66 W16       30.05S WCI  -8
$$

NDZ018>021-031>035-040>046-202200-
SOUTHWEST NORTH DAKOTA

CITY           SKY/WX    TMP DP  RH WIND       PRES   REMARKS
BISMARCK       FAIR      12   0  58 W15G23    30.14F WCI  -4
DICKINSON      FAIR       6  -4  63 W22       30.05S WCI -15
GARRISON         N/A      9  -2  61 W20       30.09R WCI -10
HETTINGER ARPT FAIR       2  -5  72 W17       30.10S WCI -18
$$

NDZ004>008-012>016-024-026-027-054-202200-
NORTHEAST NORTH DAKOTA

CITY           SKY/WX    TMP DP  RH WIND       PRES   REMARKS
GRAND FORKS    PTSUNNY   12   3  67 NW14      30.10S WCI  -3
GRND FRKS AFB  FAIR      11   0  60 NW13      30.10S WCI  -3
DEVILS LAKE    FLURRIES   7   1  76 W18       30.08R WCI -12
$$

NDZ022-023-025-028>030-036>039-047>053-202200-
SOUTHEAST NORTH DAKOTA

CITY           SKY/WX    TMP DP  RH WIND       PRES   REMARKS
FARGO          PTSUNNY   12   4  70 NW12      30.13R WCI  -2
JAMESTOWN      FAIR      10   0  63 NW18G25   30.10R WCI  -8
$$




USA.gov is the U.S. government's official web portal to all federal, state and local government web resources and services.